Waarnemingen

Advertentie
Mijn weer
Orange, Frankrijk (7579): temperatuur & dauwpunt: 19.03.2019 23:00:00 - 25.03.2019 23:00:00 (CET)Orange, Frankrijk (7579): temperatuur 5cm: 19.03.2019 23:00:00 - 25.03.2019 23:00:00 (CET)Orange, Frankrijk (7579): windsnelheid & windstoten: 19.03.2019 23:00:00 - 25.03.2019 23:00:00 (CET)Orange, Frankrijk (7579): windrichting: 19.03.2019 23:00:00 - 25.03.2019 23:00:00 (CET)Orange, Frankrijk (7579): luchtdruk: 19.03.2019 23:00:00 - 25.03.2019 23:00:00 (CET)Orange, Frankrijk (7579): zicht: 19.03.2019 23:00:00 - 25.03.2019 23:00:00 (CET)Orange, Frankrijk (7579): neerslag: 19.03.2019 23:00:00 - 25.03.2019 23:00:00 (CET)
Datum & Tijd tt [°C] td [°C] tt 5cm [°C] ff [km/u] ff [kn] fx [km/u] fx [kn] dd ppp [hPa] vv [km] rr [mm]
25.03.2019 23:00:00 9,9 -2,8 8,9 54 29 96 52 N 1017,2 48 0,0
25.03.2019 22:00:00 10,5 -2,9 9,5 55 30 95 52 N 1017,8 52 0,0
25.03.2019 21:00:00 10,7 -2,7 9,7 60 33 97 53 N 1017,0 52 0,0
25.03.2019 20:00:00 11,2 -3,0 10,0 55 30 97 53 N 1017,8 54 0,0
25.03.2019 19:00:00 11,8 -1,7 10,8 54 29 104 56 N 1016,7 36 0,0
25.03.2019 18:00:00 13,4 -1,4 14,2 59 32 93 50 N 1015,8 10 0,0
25.03.2019 17:00:00 15,1 -1,1 17,2 57 31 93 50 N 1016,0 5 0,0
25.03.2019 16:00:00 16,1 -0,2 16,8 53 29 106 57 N 1016,4 7 0,0
25.03.2019 15:00:00 16,5 0,2 19,9 56 30 95 51 N 1016,0 7 0,0
25.03.2019 14:00:00 16,1 3,2 19,7 61 33 92 50 N 1016,6 9 0,0
25.03.2019 13:00:00 15,8 3,9 18,7 58 31 89 48 N 1017,5 9 0,0
25.03.2019 12:00:00 14,8 4,5 17,4 56 31 84 45 N 1018,4 9 0,0
25.03.2019 11:00:00 13,8 4,9 15,8 52 28 78 42 N 1019,2 8 0,0
25.03.2019 10:00:00 13,1 5,3 14,5 50 27 80 43 N 1019,7 7 0,0
25.03.2019 09:00:00 12,1 5,0 12,0 45 24 71 38 N 1020,0 7 0,0
25.03.2019 08:00:00 11,2 4,9 9,9 46 25 76 41 N 1019,9 7 0,0
25.03.2019 07:00:00 10,7 4,6 9,7 42 23 80 43 N 1020,0 6 0,0
25.03.2019 06:00:00 11,0 4,4 9,9 45 25 74 40 N 1019,4 5 0,0
25.03.2019 05:00:00 11,3 4,5 10,1 38 20 63 34 NNW 1019,6 6 0,0
25.03.2019 04:00:00 11,7 4,4 10,5 42 23 67 36 NNW 1019,8 7 0,0
25.03.2019 03:00:00 12,0 4,5 10,5 22 12 56 30 N 1020,5 7 0,0
25.03.2019 02:00:00 12,9 4,6 11,6 33 18 59 32 N 1020,5 9 0,0
25.03.2019 01:00:00 13,8 4,4 12,6 37 20 66 36 N 1020,3 11 0,0
25.03.2019 00:00:00 15,0 4,1 13,6 39 21 62 34 N 1020,4 13 0,0
24.03.2019 23:00:00 16,1 5,1 14,6 34 18 55 30 N 1020,3 16 0,0
24.03.2019 22:00:00 17,3 4,3 15,6 32 18 51 27 N 1020,0 22 0,0
24.03.2019 21:00:00 18,0 3,1 13,3 23 12 38 21 N 1019,9 33 0,0
24.03.2019 20:00:00 17,6 3,1 12,6 10 6 21 11 NW 1019,9 41 0,0
24.03.2019 19:00:00 19,7 2,1 14,3 10 5 21 11 NW 1019,7 41 0,0
24.03.2019 18:00:00 22,3 0,7 23,7 12 6 22 12 NNW 1019,3 48 0,0
24.03.2019 17:00:00 24,1 3,4 27,7 9 5 15 8 WNW 1019,3 47 0,0
24.03.2019 16:00:00 24,9 1,7 26,0 3 2 14 8 NNW 1019,8 59 0,0
24.03.2019 15:00:00 24,0 3,3 29,7 8 4 16 8 NNW 1020,4 19 0,0
24.03.2019 14:00:00 23,0 3,5 29,6 6 3 16 9 WNW 1021,0 19 0,0
24.03.2019 13:00:00 22,1 5,9 27,4 6 4 14 8 W 1022,3 20 0,0
24.03.2019 12:00:00 20,8 5,6 26,1 9 5 21 11 WNW 1023,0 53 0,0
24.03.2019 11:00:00 19,6 6,0 23,1 6 3 14 8 N 1023,5 20 0,0
24.03.2019 10:00:00 16,8 6,6 19,5 2 1 6 3 ZZO 1023,8 19 0,0
24.03.2019 09:00:00 13,6 3,6 13,5 0 0 5 3 N 1024,1 20 0,0
24.03.2019 08:00:00 10,2 5,2 -0,1 0 0 8 4 N 1023,9 39 0,0
24.03.2019 07:00:00 4,8 0,9 -1,4 4 2 10 6 NNO 1023,7 52 0,0
24.03.2019 06:00:00 4,6 0,9 -1,1 2 1 6 3 ZO 1023,6 48 0,0
24.03.2019 05:00:00 5,8 1,5 -0,8 2 1 6 3 ONO 1023,6 49 0,0
24.03.2019 04:00:00 6,2 1,3 -0,2 3 2 6 4 NO 1023,5 47 0,0
24.03.2019 03:00:00 5,9 1,4 0,2 5 3 10 6 N 1023,5 45 0,0
24.03.2019 02:00:00 7,0 1,3 1,0 4 2 14 7 NO 1023,6 43 0,0
24.03.2019 01:00:00 11,2 2,0 3,2 10 5 13 7 N 1023,3 40 0,0
24.03.2019 00:00:00 12,0 1,6 7,4 5 3 33 18 ZZO 1023,6 47 0,0
23.03.2019 23:00:00 16,3 1,6 14,0 23 12 37 20 N 1023,1 47 0,0
23.03.2019 22:00:00 16,8 1,2 14,7 24 13 40 22 N 1022,9 53 0,0
23.03.2019 21:00:00 17,4 0,5 15,2 22 12 36 19 N 1022,8 56 0,0
23.03.2019 20:00:00 18,2 0,8 15,6 21 11 35 19 N 1022,2 56 0,0
23.03.2019 19:00:00 19,4 1,4 16,8 21 11 36 19 N 1022,0 55 0,0
23.03.2019 18:00:00 21,6 1,8 22,6 27 14 43 23 N 1021,5 34 0,0
23.03.2019 17:00:00 23,1 1,4 26,2 26 14 40 21 N 1021,6 26 0,0
23.03.2019 16:00:00 23,7 1,3 23,9 26 14 39 21 N 1021,7 26 0,0
23.03.2019 15:00:00 24,0 1,6 28,2 27 15 45 24 N 1022,0 29 0,0
23.03.2019 14:00:00 23,6 1,2 27,2 28 15 46 25 N 1022,7 29 0,0
23.03.2019 13:00:00 22,7 2,7 26,3 29 16 49 27 N 1023,4 31 0,0
23.03.2019 12:00:00 21,5 1,7 23,5 28 15 50 27 N 1024,0 20 0,0
23.03.2019 11:00:00 19,4 1,8 20,9 33 18 50 27 NNW 1024,4 20 0,0
23.03.2019 10:00:00 17,7 2,0 18,9 32 18 47 26 NNW 1025,2 44 0,0
23.03.2019 09:00:00 14,5 5,0 10,0 6 3 13 7 NW 1025,4 55 0,0
23.03.2019 08:00:00 6,5 3,3 -1,7 4 2 6 4 W 1025,7 35 0,0
23.03.2019 07:00:00 2,3 -0,8 -2,5 3 2 5 3 NNO 1025,8 42 0,0
23.03.2019 06:00:00 2,6 -0,3 -2,3 0 0 5 3 N 1026,0 40 0,0
23.03.2019 05:00:00 3,6 -0,2 -2,1 0 0 8 4 N 1026,0 43 0,0
23.03.2019 04:00:00 4,3 -0,3 -1,7 5 3 12 7 NNO 1026,3 43 0,0
23.03.2019 03:00:00 4,4 -0,2 -1,6 7 4 10 5 NNO 1026,6 41 0,0
23.03.2019 02:00:00 5,4 0,0 -1,1 6 3 8 4 NO 1026,8 33 0,0
23.03.2019 01:00:00 6,9 0,3 0,0 3 1 9 5 NNO 1026,7 24 0,0
23.03.2019 00:00:00 7,8 1,4 1,2 5 3 9 5 NNO 1026,7 24 0,0
22.03.2019 23:00:00 8,6 0,8 2,9 5 3 10 6 ONO 1026,8 35 0,0
22.03.2019 22:00:00 12,6 0,3 4,6 2 1 16 9 NNO 1026,3 47 0,0
22.03.2019 21:00:00 14,7 0,5 4,4 13 7 19 11 NW 1025,6 47 0,0
22.03.2019 20:00:00 14,9 -0,8 4,4 6 4 10 6 WNW 1025,4 39 0,0
22.03.2019 19:00:00 18,8 -2,8 7,9 6 3 11 6 WNW 1025,2 8 0,0
22.03.2019 18:00:00 21,9 -1,4 22,5 8 4 18 10 NW 1024,8 42 0,0
22.03.2019 17:00:00 22,6 -0,9 25,8 11 6 21 11 WNW 1025,1 41 0,0
22.03.2019 16:00:00 23,0 -0,5 23,6 10 6 23 12 W 1025,6 32 0,0
22.03.2019 15:00:00 22,1 -3,4 27,1 12 6 22 12 W 1026,1 20 0,0
22.03.2019 14:00:00 21,7 2,4 26,1 9 5 18 10 WNW 1026,8 50 0,0
22.03.2019 13:00:00 20,1 4,1 24,1 9 5 17 9 W 1027,5 24 0,0
22.03.2019 12:00:00 18,0 4,5 21,8 7 4 18 10 W 1028,3 10 0,0
22.03.2019 11:00:00 16,0 4,7 18,5 7 4 14 8 W 1028,9 18 0,0
22.03.2019 10:00:00 13,1 2,6 15,6 8 4 15 8 NW 1029,3 20 0,0
22.03.2019 09:00:00 10,6 2,2 10,5 6 3 10 5 NNW 1029,5 20 0,0
22.03.2019 08:00:00 6,8 1,5 -1,5 2 1 7 4 N 1029,5 20 0,0
22.03.2019 07:00:00 2,2 -1,1 -3,3 3 2 6 3 NNW 1029,0 39 0,0
22.03.2019 06:00:00 1,6 -1,5 -2,5 3 2 9 5 OZO 1028,7 36 0,0
22.03.2019 05:00:00 3,3 -0,9 -2,9 8 5 12 7 NNW 1028,6 39 0,0
22.03.2019 04:00:00 2,9 -1,3 -2,7 3 2 9 5 NO 1028,8 35 0,0
22.03.2019 03:00:00 3,4 -1,4 -2,1 7 4 9 5 NNO 1028,7 37 0,0
22.03.2019 02:00:00 4,5 -0,9 -1,4 5 3 9 5 NNO 1029,0 34 0,0
22.03.2019 01:00:00 4,8 -0,8 -0,4 5 3 10 5 NNO 1028,8 24 0,0
22.03.2019 00:00:00 6,7 -0,1 1,4 5 3 19 11 O 1028,8 22 0,0
21.03.2019 23:00:00 11,3 0,1 8,3 13 7 29 16 N 1028,2 22 0,0
21.03.2019 22:00:00 12,0 0,1 10,0 20 11 35 19 N 1027,9 24 0,0
21.03.2019 21:00:00 12,6 0,0 10,7 22 12 31 17 NNW 1027,6 26 0,0
21.03.2019 20:00:00 13,5 0,5 11,0 22 12 32 18 NNW 1027,2 25 0,0
21.03.2019 19:00:00 13,9 -0,6 10,8 14 8 24 13 N 1026,7 40 0,0
21.03.2019 18:00:00 17,1 -0,2 18,4 14 8 23 13 N 1026,5 44 0,0
21.03.2019 17:00:00 18,3 -0,1 22,7 15 8 24 13 N 1026,4 56 0,0
21.03.2019 16:00:00 18,5 -0,9 20,6 10 6 19 10 NNW 1026,6 35 0,0
21.03.2019 15:00:00 17,9 -0,9 23,1 15 8 24 13 WNW 1027,0 36 0,0
21.03.2019 14:00:00 17,2 0,3 23,2 10 5 22 12 NW 1027,4 34 0,0
21.03.2019 13:00:00 16,0 0,9 21,5 10 6 22 12 WNW 1028,4 20 0,0
21.03.2019 12:00:00 15,1 0,5 19,7 13 7 25 14 NNW 1028,8 20 0,0
21.03.2019 11:00:00 13,5 0,1 16,3 21 11 37 20 N 1029,1 32 0,0
21.03.2019 10:00:00 12,0 -0,2 14,6 25 13 35 19 NNW 1029,2 20 0,0
21.03.2019 09:00:00 9,4 -0,2 8,4 11 6 21 12 N 1029,6 20 0,0
21.03.2019 08:00:00 6,4 -0,4 -3,3 15 8 21 11 NNO 1029,7 60 0,0
21.03.2019 07:00:00 0,8 -2,1 -4,6 8 5 11 6 N 1029,5 44 0,0
21.03.2019 06:00:00 0,6 -2,1 -4,4 3 2 6 4 ZO 1029,3 40 0,0
21.03.2019 05:00:00 1,3 -2,3 -4,4 0 0 7 4 N 1029,2 43 0,0
21.03.2019 04:00:00 2,5 -1,7 -3,9 4 2 9 5 NNO 1029,0 45 0,0
21.03.2019 03:00:00 2,4 -1,8 -3,0 3 2 9 5 NO 1029,3 43 0,0
21.03.2019 02:00:00 3,0 -1,9 -2,6 5 3 9 5 NNO 1029,7 19 0,0
21.03.2019 01:00:00 3,2 -1,8 -1,6 7 4 8 5 ONO 1029,7 42 0,0
21.03.2019 00:00:00 6,3 -2,1 -1,2 2 1 8 5 W 1029,5 46 0,0
20.03.2019 23:00:00 9,6 -1,8 4,9 8 4 33 18 O 1029,4 49 0,0
20.03.2019 22:00:00 11,1 -2,0 9,4 23 12 39 21 N 1028,7 51 0,0
20.03.2019 21:00:00 11,6 -1,9 9,7 22 12 38 21 N 1028,0 55 0,0
20.03.2019 20:00:00 12,4 -1,5 10,5 24 13 40 22 N 1027,4 52 0,0
20.03.2019 19:00:00 12,8 -1,9 10,8 23 12 45 24 N 1027,0 55 0,0
20.03.2019 18:00:00 14,2 -2,3 15,5 29 16 48 26 N 1026,6 31 0,0
20.03.2019 17:00:00 15,2 -2,3 18,8 27 15 45 24 N 1026,4 31 0,0
20.03.2019 16:00:00 15,6 -1,5 16,7 29 16 42 23 NNW 1026,5 34 0,0
20.03.2019 15:00:00 16,0 -0,3 22,1 20 11 32 17 N 1026,9 36 0,0
20.03.2019 14:00:00 15,6 -0,2 20,9 16 9 35 19 NNW 1027,2 34 0,0
20.03.2019 13:00:00 14,5 -1,2 20,2 24 13 35 19 N 1027,9 20 0,0
20.03.2019 12:00:00 14,1 0,0 17,6 24 13 38 20 N 1028,2 29 0,0
20.03.2019 11:00:00 12,1 -0,8 14,5 28 15 46 25 N 1028,3 28 0,0
20.03.2019 10:00:00 10,0 -0,8 11,4 31 17 53 29 N 1028,5 20 0,0
20.03.2019 09:00:00 8,2 -0,8 8,4 36 20 55 30 N 1028,4 32 0,0
20.03.2019 08:00:00 6,7 -1,0 4,5 30 16 45 24 N 1028,2 37 0,0
20.03.2019 07:00:00 5,6 -1,3 4,5 27 15 50 27 N 1027,6 37 0,0
20.03.2019 06:00:00 6,0 -1,4 4,6 27 15 41 22 N 1027,4 48 0,0
20.03.2019 05:00:00 6,3 -1,4 4,9 30 16 44 24 N 1027,2 51 0,0
20.03.2019 04:00:00 6,6 -1,6 5,0 27 14 42 23 N 1027,2 59 0,0
20.03.2019 03:00:00 6,7 -1,5 5,1 21 11 41 22 N 1027,3 60 0,0
20.03.2019 02:00:00 7,2 -1,2 5,8 23 13 37 20 N 1027,1 60 0,0
20.03.2019 01:00:00 7,8 -0,9 6,4 24 13 39 21 N 1027,0 60 0,0
20.03.2019 00:00:00 8,3 -0,7 6,7 24 13 42 23 N 1026,5 60 0,0
19.03.2019 23:00:00 8,9 -0,7 7,5 24 13 49 26 N 1025,9 60 0,0

tt = temperatuur
td = dauwpunt
tt 5cm = temperatuur 5cm
ff = windsnelheid
fx = windstoten
dd = windrichting
ppp = luchtdruk
vv = zicht
rr = neerslag

Weerstations in de omgeving